EDDV Weather Reports


Display with metric or nautical units.
time (UTC)temp
F
wind
direction
speed
MPH
gust
MPH
rain 1hr
in
rain 24hr
in
rain mn
in
humidity
%
barometer
mb
20260902121002 69 250 8.0 0.0 0.00 0.00 0.00 40 1019.0
20260902111002 69 250 11.0 0.0 0.00 0.00 0.00 45 1019.0
20260902081002 62 200 3.0 0.0 0.00 0.00 0.00 80 1019.0
20260902061002 55 130 1.0 0.0 0.00 0.00 0.00 95 1019.0
20260902051002 53 70 2.0 0.0 0.00 0.00 0.00 95 1019.0
20260902041002 51 0 0.0 0.0 0.00 0.00 0.00 95 1019.0
20260902031001 51 0 0.0 0.0 0.00 0.00 0.00 95 1020.0
20260902021002 51 0 0.0 0.0 0.00 0.00 0.00 95 1020.0
20260902011002 51 0 0.0 0.0 0.00 0.00 0.00 10 1019.0
20260902001002 53 230 2.0 0.0 0.00 0.00 0.00 10 1020.0
20260901231002 55 0 0.0 0.0 0.00 0.00 0.00 95 1020.0
20260901211002 59 250 5.0 0.0 0.00 0.00 0.00 90 1020.0
20260901201002 60 240 7.0 0.0 0.00 0.00 0.00 85 1020.0
20260901191003 62 240 6.0 0.0 0.00 0.00 0.00 85 1019.0
20260901181002 66 250 5.0 0.0 0.00 0.00 0.00 70 1018.0
20260901171002 68 250 7.0 0.0 0.00 0.00 0.00 65 1018.0
20260901161002 68 260 7.0 0.0 0.00 0.00 0.00 70 1018.0
20260901151003 68 250 8.0 0.0 0.00 0.00 0.00 75 1018.0
20260901141001 64 230 8.0 0.0 0.00 0.00 0.00 85 1018.0
20260901131003 64 270 7.0 0.0 0.00 0.00 0.00 90 1018.0